Dewpoint
-9 -4 -3 -3 -6 -2 -0 -5 1 2 2 1 1 2 6 3 7 9 -1 3 1 2 5 7 6 7 8 8 9 7 8 8 8 8 10 10 11 11 11 11 12 12 12 12 12 12 12 13 13
-7 -4 -3 -1 -4 -0 -3 -4 3 2 1 -0 -0 -0 -1 0 -0 -0 -0 1 0 -0 5 7 6 7 8 7 5 4 4 3 4 8 8 7 9 11 11 11 11 12 12 12 12 12 11 12 11
-5 -4 -2 -2 -4 -4 -2 1 2 1 1 -0 -1 -1 -2 -3 -2 -0 -3 -0 -4 -2 2 4 4 2 4 3 -2 -2 0 -2 -1 -0 2 4 4 7 9 11 11 11 11 11 11 11 11 11 11
-3 -2 -3 -2 -1 -4 -3 2 1 0 -0 -1 -1 -2 -2 -4 -1 -1 -4 -4 -6 -4 -2 -5 -5 -4 -6 -8 -7 -6 -5 -5 -7 -5 -5 -4 -2 -1 2 5 8 10 11 11 10 10 11 11 12
-3 -1 -1 -3 -6 -8 0 1 1 1 0 -2 -2 -2 -4 -6 -6 -3 -4 -6 -7 -8 -8 -8 -9 -10 -12 -11 -12 -11 -10 -9 -7 -8 -10 -9 -10 -9 -6 -3 -0 3 7 10 10 11 11 11 10
-1 -3 -2 -2 -3 -3 1 1 1 -0 -1 -2 -2 -4 -6 -7 -7 -6 -6 -7 -8 -10 -12 -9 -9 -16 -17 -18 -17 -16 -14 -16 -15 -11 -15 -17 -14 -15 -16 -13 -11 -6 -2 3 7 9 11 11 11
-1 -3 -3 -3 -4 -2 1 1 -0 -1 -1 -1 -3 -5 -7 -8 -8 -8 -8 -9 -8 -11 -12 -14 -14 -15 -19 -21 -21 -22 -22 -24 -24 -23 -23 -25 -28 -27 -21 -20 -23 -17 -14 -10 -3 3 8 10 11
-1 -1 -1 -2 -3 -3 -1 0 -1 -1 -2 -2 -3 -5 -7 -8 -9 -9 -9 -9 -9 -12 -13 -16 -17 -19 -21 -21 -22 -23 -23 -25 -26 -27 -28 -30 -30 -31 -32 -31 -28 -28 -27 -22 -18 -12 -5 3 8
-1 0 1 -3 -4 -4 -1 -2 -3 -3 -3 -4 -4 -5 -6 -7 -8 -9 -10 -11 -11 -13 -15 -17 -18 -19 -20 -20 -21 -22 -23 -24 -26 -28 -30 -32 -33 -33 -34 -34 -34 -34 -33 -33 -32 -28 -21 -14 -5
-1 -2 -4 -3 -3 -2 -2 -3 -4 -4 -5 -6 -6 -5 -6 -7 -7 -7 -8 -10 -13 -14 -15 -18 -19 -19 -20 -20 -21 -22 -23 -24 -26 -28 -30 -31 -33 -34 -34 -35 -35 -35 -35 -35 -35 -35 -34 -30 -23
-1 0 -1 -2 -1 -3 -2 -4 -4 -4 -4 -4 -5 -6 -6 -7 -7 -6 -7 -8 -10 -13 -16 -18 -20 -20 -20 -21 -21 -22 -23 -25 -26 -28 -30 -32 -33 -34 -34 -35 -35 -35 -35 -35 -35 -35 -35 -34 -33
-1 -3 -2 -2 -2 -3 -3 -4 -5 -4 -4 -4 -4 -4 -6 -7 -7 -7 -6 -8 -11 -14 -17 -18 -20 -20 -20 -21 -21 -22 -23 -25 -27 -28 -30 -31 -33 -33 -34 -34 -34 -35 -34 -34 -35 -35 -34 -34 -34
-2 -3 -3 -3 -2 -3 -2 -4 -4 -5 -5 -5 -5 -6 -6 -7 -7 -7 -8 -10 -10 -12 -16 -19 -20 -20 -20 -21 -21 -21 -23 -25 -26 -28 -30 -31 -32 -32 -33 -33 -33 -34 -34 -33 -33 -33 -34 -34 -34
-4 -3 -3 -3 -3 -4 -3 -3 -4 -4 -4 -5 -5 -6 -6 -7 -7 -8 -10 -11 -11 -12 -15 -19 -20 -20 -20 -20 -20 -21 -22 -24 -26 -28 -30 -31 -31 -31 -31 -31 -31 -32 -32 -32 -32 -33 -33 -32 -33
-4 -3 -4 -3 -3 -4 -4 -3 -2 -4 -5 -5 -6 -6 -7 -7 -8 -8 -10 -11 -11 -11 -16 -19 -20 -20 -20 -20 -20 -21 -23 -24 -27 -29 -30 -30 -30 -30 -29 -29 -28 -28 -28 -28 -30 -31 -32 -32 -33
-5 -4 -5 -5 -2 -3 -5 -4 -7 -4 -5 -6 -6 -7 -7 -8 -8 -8 -9 -9 -10 -11 -16 -19 -20 -19 -19 -20 -21 -22 -24 -26 -28 -29 -30 -30 -30 -29 -28 -28 -29 -29 -29 -30 -29 -29 -30 -30 -31
-4 -8 -3 -4 -2 -3 -4 -3 -6 -5 -6 -6 -7 -7 -7 -8 -9 -9 -9 -9 -10 -12 -16 -19 -19 -19 -19 -20 -21 -23 -25 -27 -28 -29 -30 -30 -29 -28 -28 -28 -28 -28 -28 -27 -28 -27 -28 -28 -28
-8 -2 -3 -4 -3 -3 -2 -2 -5 -6 -7 -6 -7 -7 -8 -8 -9 -9 -10 -10 -11 -12 -16 -19 -19 -19 -20 -21 -22 -24 -25 -26 -28 -29 -29 -28 -27 -26 -26 -26 -26 -26 -26 -25 -25 -25 -26 -24 -24
-10 -6 -7 -9 -7 -2 -2 -3 -4 -6 -7 -7 -7 -8 -8 -8 -9 -10 -11 -12 -12 -14 -15 -18 -19 -19 -20 -21 -23 -24 -25 -26 -27 -27 -27 -25 -24 -24 -24 -25 -25 -25 -25 -24 -23 -23 -24 -23 -23
-9 -10 -9 -12 -15 -3 -5 -8 -10 -7 -6 -7 -6 -7 -8 -9 -10 -11 -12 -13 -13 -14 -15 -17 -18 -19 -20 -22 -24 -24 -24 -25 -26 -26 -25 -23 -23 -23 -24 -24 -24 -24 -24 -23 -22 -21 -22 -21 -19
-15 -14 -14 -15 -17 -16 -16 -12 -15 -16 -17 -10 -7 -7 -8 -9 -10 -11 -13 -13 -13 -14 -14 -16 -18 -19 -20 -22 -23 -23 -23 -25 -26 -25 -24 -23 -23 -23 -22 -22 -22 -21 -22 -22 -22 -21 -20 -21 -20
-13 -16 -17 -17 -16 -10 -16 -1 -8 -9 -11 -16 -15 -8 -8 -9 -10 -11 -13 -13 -13 -14 -14 -17 -18 -18 -19 -21 -22 -22 -23 -24 -25 -25 -24 -23 -22 -21 -20 -19 -19 -19 -19 -18 -18 -17 -17 -17 -19
-14 -18 -18 -17 -15 -2 -8 -10 -2 -14 -9 -6 -9 -8 -8 -9 -10 -11 -13 -13 -13 -13 -14 -17 -17 -17 -18 -20 -21 -21 -23 -24 -25 -25 -24 -23 -22 -20 -19 -18 -18 -17 -17 -16 -15 -15 -15 -14 -15
-16 -17 -16 -14 -10 -2 -1 -2 0 -6 -8 -8 -9 -7 -8 -9 -10 -11 -12 -13 -13 -14 -14 -16 -16 -16 -18 -19 -20 -21 -22 -24 -25 -24 -23 -22 -21 -20 -19 -19 -18 -18 -17 -16 -15 -15 -15 -15 -14
-17 -9 1 3 -3 3 -10 -11 -3 -5 -8 -9 -8 -7 -8 -9 -11 -12 -12 -13 -13 -14 -14 -15 -15 -15 -17 -18 -19 -21 -22 -24 -24 -23 -22 -21 -20 -20 -20 -20 -19 -18 -17 -15 -14 -14 -15 -15 -15
-16 -10 3 6 4 1 -4 -4 -1 -8 -10 -11 -8 -7 -8 -10 -11 -12 -12 -13 -14 -14 -14 -15 -14 -14 -16 -18 -19 -20 -22 -24 -23 -22 -20 -20 -20 -20 -20 -20 -20 -19 -18 -16 -15 -15 -15 -15 -15
-13 -14 -14 0 -0 1 -1 -3 -4 -7 -8 -10 -7 -7 -8 -9 -11 -12 -12 -13 -14 -14 -14 -14 -14 -14 -16 -18 -18 -21 -23 -23 -23 -21 -20 -20 -20 -20 -20 -20 -20 -19 -18 -16 -15 -15 -15 -14 -14
-16 -16 -3 -2 3 3 -1 -2 -1 -8 -5 -8 -9 -7 -8 -9 -11 -12 -12 -13 -14 -14 -14 -13 -13 -13 -15 -17 -19 -21 -22 -21 -20 -20 -20 -20 -19 -19 -19 -19 -19 -18 -17 -16 -15 -15 -15 -14 -14
-8 -10 -3 -2 0 2 2 -2 -6 -5 -6 -6 -8 -9 -8 -9 -10 -12 -12 -13 -14 -14 -14 -13 -13 -13 -14 -17 -19 -21 -20 -20 -20 -19 -19 -19 -19 -19 -18 -18 -18 -17 -17 -16 -15 -15 -14 -14 -14
-3 -2 -1 1 1 0 0 -1 -8 -9 -8 -7 -9 -12 -9 -8 -10 -11 -13 -14 -14 -14 -13 -13 -13 -13 -16 -18 -19 -20 -19 -20 -20 -19 -19 -18 -18 -18 -17 -17 -16 -16 -16 -15 -14 -14 -14 -13 -13
Wind_Speed
5 7 9 6 3 5 4 6 2 4 2 2 5 5 6 5 4 4 14 22 26 24 19 18 11 9 12 8 7 5 3 3 4 5 4 1 2 3 5 3 5 6 6 7 8 9 9 8 5
6 8 7 3 4 2 5 4 7 4 10 18 11 7 2 3 5 6 19 25 26 23 19 15 14 13 12 10 6 4 3 2 1 2 2 3 3 2 2 4 5 4 4 5 5 5 5 7 6
7 9 4 4 4 6 6 5 6 6 21 8 6 3 6 5 7 14 15 25 25 23 19 14 12 12 11 9 6 5 4 2 2 1 2 5 1 2 4 4 4 5 5 6 6 6 6 6 7
5 4 1 3 7 6 5 6 7 12 6 10 8 4 5 9 12 14 21 23 22 22 19 14 12 11 10 9 7 5 5 3 2 4 3 4 5 3 2 3 6 6 6 7 8 9 9 8 10
6 2 1 3 6 5 2 10 22 7 9 9 12 7 4 10 10 16 20 22 20 21 19 15 12 12 11 9 7 6 6 6 7 7 5 6 6 6 5 5 5 5 6 7 7 10 12 13 12
4 2 1 5 6 3 2 16 13 7 9 11 7 12 6 10 15 19 19 20 19 19 19 17 14 11 11 10 9 7 6 5 4 7 6 4 8 8 6 7 8 8 8 8 9 10 11 14 15
5 4 5 4 4 3 7 18 7 9 10 7 9 6 5 18 19 21 20 18 19 19 18 16 13 13 12 9 8 6 5 4 3 2 3 3 2 4 10 10 7 9 10 11 11 12 12 12 14
3 3 3 5 4 7 7 16 5 10 6 10 11 7 6 26 24 23 22 20 18 18 17 15 14 13 11 9 8 6 3 1 1 1 2 3 4 5 5 6 11 10 10 12 12 13 13 13 15
4 1 4 5 5 3 9 4 5 4 13 10 13 6 5 24 29 27 26 23 22 20 18 16 15 14 12 10 7 5 4 3 1 1 2 3 4 5 5 6 6 10 11 11 11 13 15 16 17
4 4 7 2 1 3 8 6 15 7 8 8 12 12 12 25 31 32 31 29 25 22 19 17 15 13 10 8 6 4 3 2 2 1 1 2 3 4 6 6 5 6 8 10 10 10 12 14 16
5 5 4 4 3 2 6 4 11 12 6 18 25 23 22 30 33 33 31 28 26 23 21 19 16 13 10 7 5 3 2 1 1 1 1 1 2 2 3 5 6 5 5 6 8 10 10 11 13
4 9 5 4 6 4 4 6 7 21 11 12 24 24 28 33 35 35 34 33 30 27 24 21 18 14 12 9 5 3 2 2 2 2 2 3 4 4 4 5 6 7 7 7 7 8 9 10 11
5 2 4 6 7 8 5 9 9 18 27 13 14 25 30 32 33 33 32 31 30 28 25 22 19 15 11 8 5 3 3 4 5 5 6 6 6 6 7 7 6 6 8 9 9 9 9 9 10
2 3 5 7 8 8 6 4 5 7 24 19 21 27 31 33 34 35 35 34 30 27 25 22 19 16 14 11 9 7 6 6 6 6 7 8 9 10 10 10 10 10 9 9 9 10 11 12 11
1 5 5 9 8 5 6 6 16 13 20 24 26 29 33 34 35 37 37 36 32 28 25 23 20 17 14 12 10 8 7 5 5 6 8 9 10 11 11 12 13 13 13 14 15 14 12 12 13
2 1 3 1 7 3 6 8 2 18 26 26 28 31 34 35 36 37 37 36 32 29 27 24 21 18 15 12 10 7 5 4 4 6 8 8 9 10 10 12 13 14 15 16 16 17 17 17 17
2 5 7 6 10 5 7 6 2 14 25 25 31 34 35 35 36 39 38 36 34 30 28 26 22 19 16 12 9 7 6 5 5 6 7 8 8 8 10 12 13 14 15 16 17 17 19 20 21
6 5 5 6 6 5 6 17 10 13 22 25 30 34 37 40 43 42 40 37 33 29 27 25 22 19 16 13 11 8 6 5 5 6 7 7 7 8 10 12 12 13 13 15 16 18 18 21 23
1 4 6 4 3 6 10 17 12 15 21 20 27 33 37 43 40 41 40 37 33 30 29 27 25 21 18 14 12 9 6 5 5 6 6 6 7 10 11 11 12 12 12 14 16 17 18 19 22
7 6 10 4 1 6 9 14 13 12 15 34 36 35 38 36 40 44 44 40 36 34 31 28 25 21 18 14 10 8 6 5 5 6 6 7 9 11 12 11 11 11 11 11 13 15 16 17 20
5 7 5 8 3 4 7 9 7 7 21 31 39 35 34 40 42 46 48 43 39 37 33 30 26 22 17 14 11 7 5 5 5 6 7 9 10 11 11 11 10 11 12 12 12 13 14 15 16
5 2 2 1 1 4 1 11 4 6 11 8 24 30 30 35 38 46 48 46 42 37 32 29 26 22 18 14 10 8 6 6 7 7 8 9 10 10 10 10 11 12 12 12 12 13 13 14 14
5 2 2 2 1 4 3 2 4 3 10 7 6 16 25 36 40 43 48 46 42 36 32 29 25 21 17 13 10 8 7 7 8 9 10 10 10 9 10 10 11 12 13 13 14 14 14 14 14
4 3 3 4 2 2 7 8 5 4 5 6 5 2 21 31 36 40 43 44 41 34 31 29 25 21 17 14 10 8 8 9 10 10 11 11 11 11 10 11 12 12 13 13 14 15 15 15 15
1 3 2 3 1 6 4 3 9 8 1 2 4 2 18 28 35 37 39 41 39 34 31 29 26 22 18 13 10 9 10 12 12 12 12 12 12 12 13 13 13 13 14 14 15 17 18 18 17
4 4 4 7 4 4 0 6 6 1 3 4 4 5 16 25 32 36 38 39 37 34 32 30 28 23 18 13 11 12 13 13 12 12 13 13 14 14 15 15 15 16 16 18 18 18 18 18 18
2 6 1 2 2 1 4 6 3 2 2 2 5 10 17 23 28 33 36 36 36 34 32 31 28 22 17 14 13 14 13 12 12 12 12 13 14 15 16 17 18 18 18 18 18 19 19 19 19
4 4 2 2 3 4 4 5 4 7 7 4 3 8 14 20 26 31 34 36 36 33 31 30 26 21 17 16 14 12 11 10 10 11 11 12 14 15 16 17 18 19 19 18 18 19 20 20 21
3 3 3 2 3 2 3 6 5 5 1 5 5 8 12 18 24 30 33 35 34 32 32 29 26 23 19 15 12 11 8 8 10 11 12 13 14 15 17 18 19 19 19 18 18 19 20 20 20
3 4 5 3 3 4 3 8 1 2 1 3 6 7 10 14 18 24 31 34 34 32 33 30 25 21 17 12 13 10 9 10 11 12 13 14 15 15 17 18 19 20 19 18 18 19 19 20 19
Wind_Direction
193 174 162 145 71 66 266 258 91 120 128 175 186 190 163 112 158 200 160 164 167 176 177 182 157 172 201 195 193 122 139 186 149 140 142 142 249 218 158 153 172 170 161 155 153 161 170 141 124
181 180 173 138 105 110 262 236 178 182 144 130 112 103 81 172 170 168 161 166 169 176 176 176 178 179 182 173 166 137 164 177 217 263 242 151 141 170 222 205 204 188 187 191 190 193 181 165 165
180 181 183 136 143 188 214 195 155 151 156 168 129 145 167 185 184 163 166 166 170 174 175 176 169 156 172 171 143 151 203 193 215 284 320 305 302 175 155 171 207 226 216 209 196 183 193 194 195
183 176 122 122 223 249 211 170 159 146 179 185 166 119 169 186 177 172 163 166 170 174 177 176 169 165 162 145 139 155 181 215 250 243 253 265 286 294 264 195 174 185 209 223 219 206 208 207 211
190 188 149 235 245 239 208 174 163 164 167 163 164 180 179 182 174 183 172 169 174 174 177 172 169 161 157 152 154 163 193 213 232 257 248 264 265 271 269 258 245 220 204 210 214 222 215 212 218
186 146 115 231 243 236 165 171 166 168 164 155 163 148 167 182 192 183 181 175 176 181 176 175 161 162 159 160 168 177 198 205 220 246 265 266 267 278 261 261 259 251 242 229 223 226 225 227 226
154 117 226 241 252 271 189 174 181 161 163 206 163 132 177 184 188 186 188 187 186 184 182 178 180 177 165 161 161 167 176 167 165 199 265 280 310 277 284 287 267 259 256 255 244 237 233 233 238
206 115 253 237 206 253 185 163 185 162 186 167 178 186 190 187 185 192 192 192 191 190 187 186 184 179 179 176 174 164 151 125 126 185 238 256 275 285 279 268 282 284 269 263 260 254 247 240 239
171 82 246 256 190 239 156 137 142 169 153 178 198 194 204 185 184 189 192 194 194 191 188 187 189 187 188 187 191 190 185 174 194 264 286 302 297 297 295 292 283 276 281 276 267 257 248 243 243
156 167 224 228 230 234 185 181 162 160 166 204 203 209 196 184 189 190 190 191 192 193 190 190 193 195 197 196 194 198 206 200 217 220 265 280 293 298 303 305 305 295 286 284 282 273 262 254 246
195 222 211 207 208 216 195 170 182 151 220 208 205 190 184 185 193 196 197 199 196 193 194 192 194 196 200 202 198 203 218 225 240 326 343 3 351 326 302 303 306 298 276 279 282 280 275 265 253
212 238 225 191 216 202 190 181 206 206 226 233 228 219 195 193 197 200 198 195 194 195 195 192 192 191 192 195 198 210 255 280 307 314 347 349 345 336 318 317 313 312 313 303 288 278 274 273 266
218 222 229 227 225 247 233 225 221 243 236 236 206 202 201 201 202 202 203 200 196 197 196 193 193 193 193 196 211 234 269 299 313 313 319 335 337 340 343 339 333 326 325 323 314 302 292 276 270
219 248 255 246 230 234 213 235 194 257 226 218 206 203 206 206 203 200 199 200 201 201 197 193 191 190 191 197 206 218 235 258 283 301 318 337 339 348 348 347 344 339 333 321 314 317 315 310 301
272 296 303 224 210 229 174 259 234 226 200 203 202 206 207 208 206 207 203 203 205 205 201 195 191 192 194 200 207 215 228 246 275 301 318 333 333 341 346 349 350 349 348 343 338 330 316 308 305
303 110 284 248 148 198 155 262 351 221 190 197 204 207 208 209 210 209 208 207 206 207 202 197 194 194 196 200 204 211 226 253 282 303 314 319 325 333 340 339 338 339 336 335 333 330 331 330 321
267 248 212 301 188 144 183 264 356 194 191 197 207 211 212 210 209 210 209 208 210 206 203 200 198 197 197 197 202 213 231 256 277 294 301 304 313 322 328 332 333 333 333 331 330 331 332 332 328
221 229 252 240 202 186 207 251 255 200 201 211 210 212 211 212 213 209 207 208 206 205 204 202 197 195 196 199 203 210 229 253 275 284 285 294 305 316 326 327 326 328 328 327 327 331 336 336 334
341 251 266 274 186 193 239 252 257 208 215 226 218 213 210 213 214 209 206 205 203 204 202 201 198 196 200 203 203 207 222 251 269 272 280 287 301 313 316 316 318 321 325 329 332 330 333 334 335
241 261 264 266 353 194 276 266 258 225 221 218 220 216 210 201 201 202 201 201 205 207 203 201 200 200 200 201 202 207 214 232 249 262 271 282 297 304 304 308 313 318 322 322 325 327 330 335 341
224 205 218 231 298 242 314 270 231 267 240 234 231 227 213 198 190 195 198 200 205 206 204 203 202 200 200 202 206 214 229 253 267 271 273 281 286 289 297 305 310 316 318 320 321 322 326 326 331
262 211 119 290 60 240 308 295 187 239 251 218 233 217 205 195 194 196 196 197 205 206 207 205 202 202 203 206 212 225 242 256 267 268 270 275 281 288 294 298 305 308 310 313 314 316 318 318 318
232 97 96 84 129 18 213 215 264 12 270 281 308 216 201 194 194 193 197 203 205 205 203 203 202 203 207 210 218 234 256 276 280 278 276 277 278 281 285 290 294 295 297 299 299 300 301 301 300
129 96 62 56 87 290 207 178 284 213 221 323 353 130 185 188 191 196 200 202 203 201 200 200 202 206 211 217 229 250 270 280 279 275 276 277 278 280 279 282 288 289 290 291 290 292 293 293 292
127 118 279 283 343 238 134 120 248 258 336 249 306 281 180 187 187 191 195 199 202 198 198 201 204 207 214 222 242 263 275 281 277 273 273 274 278 280 284 286 286 286 286 285 286 288 289 288 289
192 201 201 239 212 256 139 232 248 153 255 332 18 149 174 180 190 195 199 201 199 198 200 203 206 211 217 227 247 260 270 271 268 267 270 277 282 287 289 290 289 289 287 285 285 286 287 288 288
146 217 323 51 158 304 229 293 344 290 341 25 84 148 169 184 192 198 200 203 198 199 203 206 208 215 220 234 248 257 264 264 262 263 270 278 284 287 289 291 291 289 287 285 284 285 287 287 286
103 323 337 47 253 243 312 292 238 0 350 334 287 169 170 185 195 202 204 202 199 201 205 206 213 223 229 241 243 257 266 260 260 267 274 278 282 287 288 291 291 290 288 285 283 284 287 288 289
151 186 93 277 256 294 317 278 220 211 230 302 262 231 193 203 206 205 202 201 199 200 202 205 214 220 232 238 250 266 274 271 275 280 283 283 284 288 291 294 295 293 289 285 283 285 289 290 290
94 149 168 178 215 222 221 262 357 145 220 272 277 248 231 215 208 206 204 199 199 201 201 208 215 224 234 248 265 276 280 280 280 283 285 285 287 290 294 297 297 297 294 289 286 288 289 289 289
Height
1504 1504 1504 1505 1518 1522 1523 1510 1501 1506 1509 1508 1507 1508 1506 1509 1510 1521 1513 1516 1520 1524 1528 1530 1532 1533 1533 1534 1533 1533 1533 1535 1533 1534 1533 1534 1534 1534 1535 1536 1537 1537 1536 1535 1534 1535 1535 1535 1536
1503 1504 1505 1504 1522 1528 1522 1502 1501 1503 1505 1506 1507 1508 1509 1510 1509 1510 1512 1514 1520 1524 1527 1529 1530 1532 1532 1533 1532 1532 1532 1533 1532 1531 1531 1533 1533 1534 1534 1534 1535 1536 1535 1536 1535 1535 1536 1535 1535
1502 1503 1504 1506 1520 1522 1512 1496 1500 1501 1502 1503 1506 1507 1508 1507 1507 1509 1510 1515 1518 1522 1526 1527 1529 1530 1530 1531 1532 1532 1532 1532 1532 1530 1529 1529 1531 1533 1533 1534 1534 1535 1535 1534 1534 1534 1535 1536 1536
1502 1503 1505 1510 1510 1499 1492 1493 1494 1499 1502 1502 1503 1507 1507 1506 1507 1508 1510 1514 1518 1521 1524 1526 1527 1528 1529 1530 1531 1531 1530 1531 1530 1529 1529 1529 1528 1530 1531 1533 1533 1534 1534 1533 1533 1533 1534 1535 1534
1501 1501 1508 1508 1501 1491 1486 1488 1492 1495 1496 1498 1499 1503 1505 1505 1507 1508 1511 1514 1518 1520 1523 1524 1526 1526 1528 1529 1530 1529 1528 1528 1528 1527 1528 1528 1528 1529 1528 1530 1530 1532 1531 1531 1531 1532 1532 1533 1532
1499 1500 1511 1510 1499 1486 1486 1486 1489 1493 1495 1497 1499 1500 1503 1504 1506 1508 1510 1514 1517 1520 1521 1522 1523 1525 1526 1527 1527 1527 1526 1527 1527 1527 1527 1527 1527 1527 1528 1527 1527 1529 1528 1528 1528 1530 1530 1529 1530
1496 1501 1504 1497 1492 1487 1485 1486 1488 1490 1493 1495 1495 1501 1504 1503 1505 1507 1510 1514 1516 1519 1521 1522 1523 1523 1524 1525 1525 1526 1526 1527 1527 1526 1526 1527 1527 1527 1525 1524 1526 1525 1525 1527 1526 1527 1528 1528 1529
1494 1496 1495 1492 1492 1488 1480 1485 1486 1488 1492 1492 1494 1495 1498 1499 1504 1507 1510 1513 1515 1516 1519 1521 1522 1523 1523 1524 1525 1526 1526 1526 1526 1525 1526 1526 1524 1524 1524 1525 1522 1521 1523 1523 1523 1524 1525 1525 1526
1491 1499 1502 1489 1484 1480 1481 1483 1486 1488 1488 1490 1490 1490 1491 1492 1498 1503 1507 1510 1512 1514 1516 1518 1520 1521 1522 1524 1525 1525 1526 1526 1525 1525 1525 1524 1524 1522 1522 1522 1520 1521 1518 1519 1520 1521 1522 1523 1523
1490 1499 1490 1481 1481 1480 1479 1479 1481 1486 1488 1488 1486 1487 1489 1491 1494 1497 1500 1503 1508 1511 1514 1516 1518 1520 1521 1522 1523 1523 1524 1524 1524 1524 1523 1523 1522 1521 1520 1520 1519 1518 1517 1517 1517 1517 1518 1519 1518
1487 1489 1480 1478 1479 1479 1479 1481 1480 1481 1485 1475 1475 1480 1484 1487 1489 1492 1497 1500 1503 1508 1511 1513 1515 1517 1519 1520 1520 1521 1521 1522 1522 1522 1521 1521 1521 1519 1519 1518 1516 1516 1516 1514 1514 1513 1513 1514 1514
1484 1478 1478 1477 1477 1479 1478 1476 1475 1474 1467 1468 1472 1475 1478 1481 1484 1487 1490 1494 1499 1503 1507 1510 1512 1514 1516 1517 1518 1519 1519 1520 1520 1520 1520 1519 1518 1517 1516 1515 1514 1512 1511 1511 1511 1511 1513 1511 1511
1477 1475 1476 1476 1477 1477 1477 1475 1475 1466 1468 1469 1471 1473 1474 1478 1482 1486 1491 1494 1495 1498 1502 1507 1509 1512 1514 1515 1516 1517 1517 1517 1516 1516 1517 1516 1515 1515 1513 1512 1511 1510 1508 1507 1510 1511 1508 1508 1507
1475 1475 1473 1473 1473 1474 1474 1474 1474 1460 1463 1467 1467 1469 1472 1474 1478 1482 1486 1491 1495 1498 1500 1504 1507 1510 1511 1513 1514 1515 1515 1515 1515 1514 1514 1513 1512 1511 1510 1508 1507 1507 1507 1509 1510 1506 1504 1505 1504
1473 1474 1472 1468 1468 1470 1472 1473 1461 1456 1458 1461 1464 1466 1468 1470 1474 1476 1481 1486 1492 1497 1500 1502 1505 1508 1510 1511 1512 1512 1512 1513 1513 1512 1512 1511 1510 1509 1507 1506 1505 1505 1505 1504 1502 1502 1504 1503 1501
1476 1475 1477 1464 1466 1468 1471 1463 1451 1452 1454 1457 1460 1462 1463 1465 1469 1473 1477 1483 1488 1493 1498 1501 1503 1505 1507 1508 1509 1509 1510 1510 1510 1510 1510 1509 1508 1508 1507 1506 1505 1505 1503 1501 1501 1500 1499 1497 1496
1479 1478 1477 1465 1462 1464 1467 1458 1452 1452 1453 1454 1454 1456 1458 1462 1466 1468 1473 1477 1483 1488 1493 1498 1501 1502 1504 1504 1506 1508 1509 1509 1509 1508 1507 1507 1506 1506 1506 1504 1503 1502 1501 1500 1499 1497 1494 1492 1491
1476 1480 1471 1465 1462 1464 1465 1455 1450 1452 1452 1449 1450 1450 1450 1452 1453 1460 1467 1473 1480 1485 1489 1494 1498 1500 1502 1503 1503 1505 1507 1507 1507 1506 1505 1505 1505 1505 1504 1503 1502 1502 1501 1500 1497 1494 1491 1489 1486
1465 1467 1467 1459 1457 1462 1457 1447 1444 1446 1449 1447 1443 1441 1441 1443 1451 1458 1464 1469 1476 1481 1485 1490 1493 1496 1500 1502 1502 1503 1503 1504 1505 1504 1504 1503 1503 1503 1502 1502 1501 1500 1498 1496 1494 1491 1490 1488 1485
1466 1467 1464 1458 1458 1462 1454 1445 1441 1438 1434 1426 1426 1428 1429 1438 1443 1448 1457 1463 1469 1475 1480 1486 1490 1493 1496 1499 1500 1501 1502 1502 1503 1503 1503 1502 1501 1501 1501 1500 1499 1498 1496 1496 1494 1492 1490 1489 1487
1461 1463 1459 1457 1459 1458 1458 1437 1433 1420 1418 1418 1413 1416 1424 1428 1435 1442 1449 1456 1463 1469 1475 1480 1486 1490 1493 1495 1497 1498 1499 1500 1500 1501 1501 1500 1499 1499 1498 1497 1497 1495 1495 1494 1493 1492 1489 1488 1487
1464 1457 1458 1459 1460 1463 1456 1433 1419 1413 1409 1404 1407 1412 1415 1423 1432 1439 1446 1453 1459 1466 1473 1478 1483 1487 1490 1493 1494 1495 1496 1497 1497 1498 1498 1498 1497 1496 1495 1495 1494 1493 1492 1491 1491 1490 1488 1487 1486
1455 1459 1460 1462 1466 1474 1461 1467 1422 1418 1409 1404 1408 1410 1415 1420 1427 1435 1444 1451 1458 1465 1471 1477 1482 1485 1488 1490 1492 1493 1494 1495 1495 1495 1495 1495 1494 1493 1492 1491 1491 1491 1490 1489 1488 1488 1487 1486 1486
1459 1460 1464 1471 1473 1485 1449 1449 1436 1430 1421 1414 1414 1413 1416 1421 1429 1435 1443 1451 1458 1465 1469 1474 1479 1483 1486 1488 1489 1490 1491 1492 1491 1491 1492 1492 1491 1491 1489 1488 1487 1487 1486 1486 1485 1485 1484 1483 1481
1460 1460 1460 1464 1484 1442 1451 1462 1435 1416 1422 1424 1421 1418 1419 1424 1430 1437 1443 1448 1455 1461 1467 1472 1476 1479 1483 1485 1486 1487 1488 1489 1488 1488 1488 1488 1487 1487 1486 1485 1483 1481 1481 1481 1481 1481 1480 1478 1476
1463 1456 1445 1434 1449 1450 1460 1455 1418 1423 1422 1420 1417 1418 1421 1424 1431 1435 1440 1445 1452 1459 1463 1468 1473 1476 1478 1481 1482 1484 1485 1485 1484 1483 1483 1484 1483 1482 1482 1480 1479 1477 1476 1476 1476 1476 1474 1473 1471
1456 1460 1451 1452 1460 1455 1438 1423 1415 1421 1422 1420 1418 1417 1418 1422 1427 1432 1437 1442 1449 1455 1460 1465 1469 1473 1475 1477 1478 1480 1480 1479 1480 1479 1479 1478 1479 1478 1477 1476 1475 1473 1471 1470 1470 1469 1468 1467 1467
1460 1466 1457 1461 1446 1438 1449 1445 1427 1419 1422 1426 1423 1419 1418 1419 1424 1429 1433 1438 1444 1450 1456 1462 1467 1470 1473 1474 1475 1475 1476 1475 1476 1475 1474 1473 1473 1473 1473 1471 1470 1469 1467 1465 1464 1463 1462 1461 1461
1459 1459 1470 1468 1460 1446 1447 1444 1428 1421 1425 1424 1423 1422 1420 1421 1422 1425 1430 1437 1444 1448 1454 1460 1464 1467 1469 1471 1471 1471 1470 1471 1471 1471 1470 1468 1467 1468 1467 1466 1465 1463 1462 1460 1458 1457 1456 1455 1455
1458 1460 1462 1453 1453 1453 1451 1428 1422 1425 1425 1424 1422 1421 1423 1424 1425 1428 1431 1434 1440 1447 1452 1456 1461 1464 1467 1468 1468 1467 1467 1467 1467 1467 1466 1464 1463 1462 1461 1461 1459 1457 1456 1454 1452 1451 1451 1449 1448